Seattle, WA

3:55 PM PDT on September 25, 2017 (GMT -0700)
Seattle-Tacoma International

Weather History for KSEA - October, 2013

Change the Weather History Date:

Thursday, October 24, 2013

  Actual Average Record
Temperature  
Mean Temperature 47 °F 50 °F  
Max Temperature 50 °F 57 °F 72 °F (1965)
Min Temperature 43 °F 44 °F 33 °F (1954)
Degree Days  
Heating Degree Days 18 14  
Month to date heating degree days 307 271  
Since 1 July heating degree days 418 488  
Cooling Degree Days 0 0  
Month to date cooling degree days 0 0  
Year to date cooling degree days 385 189  
Moisture  
Dew Point 45 °F    
Average Humidity 91    
Maximum Humidity 96    
Minimum Humidity 86    
Precipitation  
Precipitation 0.00 in 0.14 in 1.10 in (1985)
Month to date precipitation 1.44 2.38  
Year to date precipitation 27.01 24.47  
Snow  
Snow 0.00 in - - ()
Month to date snowfall 0.0  
Since 1 July snowfall 0.0  
Snow Depth 0.00 in    
Sea Level Pressure  
Sea Level Pressure 30.08 in    
Wind  
Wind Speed 1 mph (WSW)    
Max Wind Speed 7 mph    
Max Gust Speed 8 mph    
T = Trace of Precipitation, MM = Missing Value Source: NWS Daily Summary

Daily Weather History Graph

Daily Weather History Graph

Search for Another Location

Airport or City:

Trip Planner

Search our weather history database for the weather conditions in past years. The results will help you decide how hot, cold, wet, or windy it might be!

Date:

Astronomy

Oct. 24, 2013 Rise Set
Actual Time 7:41 AM PDT 6:04 PM PDT
Civil Twilight 7:09 AM PDT 6:36 PM PDT
Nautical Twilight 6:34 AM PDT 7:11 PM PDT
Astronomical Twilight 5:58 AM PDT 7:47 PM PDT
Moon 10:25 PM PDT (10/24) 12:55 PM PDT (10/24)
Length of Visible Light 11h 26m
Length of Day
10h 23m
Waning Gibbous, 70% of the Moon is Illuminated
Oct 24
Waning Gibbous
Oct 26
Last Quarter
Nov 3
New
Nov 9
First Quarter
Nov 17
Full

Hourly Weather History & Observations

Time (PDT) Temp. Windchill Dew Point Humidity Pressure Visibility Wind Dir Wind Speed Gust Speed Precip Events Conditions
12:15 AM 44.6 °F - 42.8 °F 93% 30.03 in 0.2 mi Calm Calm - N/A Fog Fog
12:53 AM 43.0 °F 41.3 °F 39.9 °F 89% 30.06 in 0.5 mi South 3.5 mph - N/A Fog Fog
1:11 AM 44.6 °F - 41.0 °F 87% 30.04 in 0.2 mi Calm Calm - N/A Fog Fog
1:53 AM 43.0 °F - 41.0 °F 93% 30.06 in 0.5 mi Calm Calm - N/A Fog Fog
2:21 AM 44.6 °F 43.1 °F 41.0 °F 87% 30.04 in 0.5 mi ESE 3.5 mph - N/A Fog Fog
2:53 AM 44.1 °F - 42.1 °F 93% 30.06 in 0.5 mi Calm Calm - N/A Fog Fog
3:10 AM 42.8 °F - 41.0 °F 93% 30.03 in 0.5 mi Calm Calm - N/A Fog Fog
3:31 AM 42.8 °F - 41.0 °F 93% 30.04 in 0.5 mi Calm Calm - N/A Fog Fog
3:53 AM 44.1 °F - 41.0 °F 89% 30.06 in 0.2 mi Calm Calm - N/A Fog Fog
4:10 AM 44.6 °F 43.1 °F 42.8 °F 93% 30.04 in 0.2 mi North 3.5 mph - N/A Fog Fog
4:53 AM 45.0 °F - 43.0 °F 93% 30.06 in 0.1 mi Calm Calm - N/A Fog Fog
5:53 AM 45.0 °F - 42.1 °F 90% 30.07 in 0.1 mi Calm Calm - N/A Fog Fog
6:53 AM 46.0 °F - 43.0 °F 89% 30.07 in 0.1 mi Calm Calm - N/A Fog Fog
7:53 AM 45.0 °F - 42.1 °F 90% 30.08 in 0.1 mi Calm Calm - N/A Fog Fog
8:01 AM 44.6 °F - 42.8 °F 93% 30.05 in 0.1 mi Calm Calm - N/A Fog Fog
8:53 AM 46.0 °F - 43.0 °F 89% 30.09 in 0.1 mi Calm Calm - N/A Fog Fog
9:53 AM 46.9 °F - 45.0 °F 93% 30.10 in 0.1 mi Calm Calm - N/A Fog Fog
10:53 AM 48.0 °F - 46.0 °F 93% 30.10 in 0.1 mi NNW 4.6 mph - N/A Fog Fog
11:53 AM 48.9 °F - 46.0 °F 90% 30.10 in 0.1 mi Calm Calm - N/A Fog Fog
12:49 PM 48.2 °F - 46.4 °F 93% 30.07 in 0.2 mi Calm Calm - N/A Fog Fog
12:53 PM 48.9 °F - 46.9 °F 93% 30.09 in 0.2 mi Calm Calm - N/A Fog Fog
1:12 PM 50.0 °F - 46.4 °F 87% 30.06 in 0.5 mi Calm Calm - N/A Fog Fog
1:48 PM 48.2 °F - 46.4 °F 93% 30.05 in 0.5 mi Calm Calm - N/A Fog Fog
1:53 PM 50.0 °F - 46.9 °F 89% 30.08 in 0.5 mi Calm Calm - N/A Fog Fog
2:13 PM 50.0 °F - 46.4 °F 87% 30.05 in 1.0 mi Calm Calm - N/A   Overcast
2:36 PM 50.0 °F - 46.4 °F 87% 30.05 in 1.5 mi Calm Calm - N/A   Overcast
2:53 PM 48.9 °F - 46.9 °F 93% 30.08 in 1.0 mi WSW 4.6 mph - N/A   Overcast
3:05 PM 50.0 °F - 46.4 °F 87% 30.05 in 0.5 mi West 3.5 mph - N/A Fog Fog
3:15 PM 48.2 °F - 46.4 °F 93% 30.05 in 0.2 mi West 4.6 mph - N/A Fog Fog
3:38 PM 48.2 °F - 46.4 °F 93% 30.06 in 0.5 mi West 4.6 mph - N/A Fog Fog
3:53 PM 48.9 °F - 46.9 °F 93% 30.08 in 0.2 mi West 3.5 mph - N/A Fog Fog
4:01 PM 48.2 °F - 46.4 °F 93% 30.05 in 0.2 mi Calm Calm - N/A Fog Fog
4:17 PM 48.2 °F - 46.4 °F 93% 30.06 in 0.5 mi West 3.5 mph - N/A Fog Fog
4:53 PM 48.9 °F - 46.9 °F 93% 30.08 in 1.0 mi WNW 4.6 mph - N/A   Mist
5:53 PM 48.9 °F - 46.0 °F 90% 30.08 in 0.2 mi Calm Calm - N/A Fog Fog
6:03 PM 48.2 °F - 46.4 °F 93% 30.06 in 0.2 mi Calm Calm - N/A Fog Fog
6:11 PM 48.2 °F - 46.4 °F 93% 30.06 in 0.2 mi Calm Calm - N/A Fog Fog
6:53 PM 48.9 °F - 46.0 °F 90% 30.10 in 0.5 mi SW 3.5 mph - N/A Fog Fog
7:48 PM 48.2 °F - 46.4 °F 93% 30.09 in 0.2 mi South 3.5 mph - N/A Fog Fog
7:53 PM 48.0 °F - 46.0 °F 93% 30.12 in 0.2 mi Calm Calm - N/A Fog Fog
8:53 PM 48.0 °F - 45.0 °F 89% 30.13 in 0.2 mi SSW 3.5 mph - N/A Fog Fog
9:53 PM 48.0 °F - 45.0 °F 89% 30.14 in 0.2 mi WSW 4.6 mph - N/A Fog Fog
10:53 PM 46.9 °F - 45.0 °F 93% 30.15 in 0.1 mi Calm Calm - N/A Fog Fog
11:53 PM 46.9 °F - 45.0 °F 93% 30.16 in 0.1 mi South 5.8 mph - N/A Fog Fog